Regional Weather Roundup
Issued by NWS

Home | Current Version | Previous Version | Text Only | Print | Product List | Glossary On
Versions: 1 2 3 4 5 6 7 8 9 10 11 12 13 14 15 16 17 18 19 20 21 22 23 24 25 26 27 28 29 30 31 32 33 34 35 36 37 38 39 40 41 42 43 44 45 46 47 48 49 50
000
ASUS43 KMKX 181000
RWRWI

WISCONSIN REGIONAL WEATHER ROUNDUP
NATIONAL WEATHER SERVICE MILWAUKEE/SULLIVAN WI
400 AM CST SAT NOV 18 2017

NOTE: "FAIR" INDICATES FEW OR NO CLOUDS BELOW 12,000 FEET WITH NO
SIGNIFICANT WEATHER AND/OR OBSTRUCTIONS TO VISIBILITY.

WIZ001-002-006>008-014>016-023>028-181100-
NORTHWEST WISCONSIN

CITY           SKY/WX    TMP DP  RH WIND       PRES   REMARKS
SUPERIOR ARPT  CLOUDY    32  29  87 NW9       29.72F WCI  24
ASHLAND        CLOUDY    34  32  92 NW5       29.69S WCI  30
HAYWARD        CLOUDY    33  31  92 CALM      29.67S FOG
SIREN          CLOUDY    32  32 100 N5        29.70S FOG     WCI  27
CUMBERLAND     CLOUDY    32  32 100 N8        29.66F FOG     WCI  25
RICE LAKE      CLOUDY    33  32  96 N6        29.67F FOG     WCI  28
CHETEK         CLOUDY    33  33  97 N3        29.66S
LADYSMITH      CLOUDY    34  33  99 N6        29.66F FOG     WCI  29
EAU CLAIRE     NOT AVBL
MENOMONIE      CLOUDY    35  35 100 NW7       29.68R FOG     WCI  29
NEW RICHMOND   CLOUDY    33  33 100 N10       29.70R FOG     WCI  25
OSCEOLA        CLOUDY    34  34 100 N6        29.74R FOG     WCI  29
$$

WIZ003>005-009-010-017-018-181100-
NORTH CENTRAL WISCONSIN

CITY           SKY/WX    TMP DP  RH WIND       PRES   REMARKS
MANITOWISH WTR FOG       32  32 100 N5        29.62R VSB 1/2 WCI  27
ARBOR VITAE    FOG       34  33  96 N7        29.61R VSB 1/2 WCI  28
WOODRUFF       FOG       34  33  96 N7        29.61R VSB 1/2 WCI  28
RHINELANDER    CLOUDY    32  32 100 N6        29.60R FOG     WCI  26
EAGLE RIVER    CLOUDY    32  32 100 N5        29.60R FOG     WCI  28
LAND O LAKES   FOG       33  33 100 N6        29.60F VSB 1/2 WCI  28
PHILLIPS       CLOUDY    32  32 100 N5        29.62F FOG     WCI  27
TOMAHAWK       FOG       32  32  99 NW6       29.61R VSB 1   WCI  26
MEDFORD        CLOUDY    32  32  99 N6        29.60F FOG     WCI  27
MERRILL        CLOUDY    34  34 100 N8        29.61S WCI  27
$$

WIZ029-030-035-036-043>047-181100-
CENTRAL WISCONSIN

CITY           SKY/WX    TMP DP  RH WIND       PRES   REMARKS
WAUSAU         CLOUDY    34  32  92 N7        29.59S WCI  28
MOSINEE        NOT AVBL
MARSHFIELD     CLOUDY    34  31  88 N9        29.57F WCI  27
STEVENS POINT  CLOUDY    33  33 100 N3        29.60S
WAUPACA        CLOUDY    37  36  96 NW6       29.61R FOG     WCI  32
WAUTOMA        CLOUDY    36  34  92 N7        29.58F WCI  30
WISC RAPIDS    CLOUDY    35  33  92 N7        29.59F WCI  29
CAMP DOUGLAS   DRIZZLE   36  36  99 NW9       29.58F WCI  29
$$

WIZ011>013-019>022-031-037>040-048>050-181100-
NORTHEAST WISCONSIN

CITY           SKY/WX    TMP DP  RH WIND       PRES   REMARKS
ANTIGO         CLOUDY    32  32  99 N9        29.59S WCI  24
SHAWANO        CLOUDY    35  33  92 CALM      29.61R
OCONTO         CLOUDY    35  33  93 N7        29.59S WCI  29
STURGEON BAY   CLOUDY    38  35  89 N15       29.57R WCI  29
GREEN BAY      CLOUDY    36  35  96 N10       29.59R WCI  28
MANITOWOC      CLOUDY    37  35  92 NW7       29.58R WCI  32
APPLETON       CLOUDY    34  34 100 NW9       29.57R WCI  26
CLINTONVILLE   CLOUDY    36  34  93 NW7       29.61R WCI  30
OSHKOSH        CLOUDY    37  34  89 N12       29.58S WCI  29
$$

WIZ032>034-041-042-053>061-181100-
SOUTHWEST WISCONSIN

CITY           SKY/WX    TMP DP  RH WIND       PRES   REMARKS
LA CROSSE      CLOUDY    38  36  92 N10       29.63S WCI  31
SPARTA         CLOUDY    34  34  99 N7        29.62S WCI  28
VIROQUA        CLOUDY    36  36 100 N10       29.56F WCI  28
BOSCOBEL       CLOUDY    39  36  89 NE5       29.57F
PRAIRIE DU CHI CLOUDY    39  36  89 N3        29.56F
PLATTEVILLE    CLOUDY    38  38 100 N13       29.54F WCI  30
$$

WIZ056-057-062-063-064-067-068-181100-
SOUTH CENTRAL WISCONSIN

CITY           SKY/WX    TMP DP  RH WIND       PRES   REMARKS
REEDSBURG      DRIZZLE   36  36 100 N5        29.58R WCI  32
BARABOO/DELLS  DRIZZLE   36  35  98 N6        29.57S WCI  31
LONE ROCK      NOT AVBL
MINERAL POINT  CLOUDY    37  37 100 N12       29.54F WCI  30
MADISON        CLOUDY    37  36  96 N9        29.55F WCI  30
MIDDLETON      CLOUDY    39  38  99 N7        29.57S WCI  34
WATERTOWN      CLOUDY    37  37 100 N10G16    29.56S WCI  30
MONROE         CLOUDY    37  36  93 N17       29.53F WCI  28
JANESVILLE     CLOUDY    39  39 100 N9        29.55R WCI  33
$$

WIZ051-052-058>065-066-070>072-181100-
SOUTHEAST WISCONSIN

CITY           SKY/WX    TMP DP  RH WIND       PRES   REMARKS
MILWAUKEE      MOCLDY    42  39  89 N12       29.54R
WAUKESHA       CLOUDY    36  36 100 N9        29.56R WCI  29
MILWAUKEE/TIMM CLOUDY    37  34  87 N9        29.56R WCI  31
RACINE         CLOUDY    42  39  89 N8        29.56R
BURLINGTON     CLOUDY    42  42 100 N8        29.54R
KENOSHA        CLOUDY    42  39  89 N9        29.53S
FOND DU LAC    LGT RAIN  37  33  85 N10       29.58R WCI  30
SHEBOYGAN      CLOUDY    37  36  96 N8        29.57R WCI  31
WEST BEND      CLOUDY    36  36 100 N10       29.56R WCI  28
JUNEAU         LGT RAIN  36  35  96 N8        29.57S WCI  29
$$

LSZ147-162-181100-
LAKE SUPERIOR

STATION/POSITION TIME  TEMP    WIND        PRES    WAVE
                       AIR SEA DIR/SP/G            HT/PER
                 (UTC) (F)     (DEG/KT/KT) (MB)    (FT/S)
DEVILS ISLAND    0900   37     360/ 13/ 14 1006.1R
SAXON HARBOR     0940   39     360/  9/ 12 1004.4R
$$

LMZ867-665-643>646-181100-
LAKE MICHIGAN

STATION/POSITION TIME  TEMP    WIND        PRES    WAVE
                       AIR SEA DIR/SP/G            HT/PER
                 (UTC) (F)     (DEG/KT/KT) (MB)    (FT/S)
N MID LAKE BUOY  0850   40 48   10/ 19/ 21 1000.6F   5/ 8
NORTHPORT PIER   0940   39      10/ 18/ 24 1001.0F
SHEBOYGAN LAKESH 0900   38     330/ 12/ 13 1001.1R
PORT WASHINGTON  0930   40     330/  5/  9 1002.0R
MILWAUKEE LAKESH 0950   40     330/  7/  8   N/A
S MID LAKE BUOY  0850   46 49  300/  8/ 10 1000.5F   4/ 6
KENOSHA   LAKESH 0900   43      10/  6/  7 1000.3
$$

TC  - TEMPERATURE IN CELSIUS
VSB - VISIBILITY IN STATUTE MILES
WCI - WIND CHILL INDEX
HX  - HEAT INDEX




USA.gov is the U.S. government's official web portal to all federal, state and local government web resources and services.